Hourly Data Report for June 22, 2021

SANIRAJAK AIRPORT
NUNAVUT
Current Station Operator: NAVCAN

68°46'33.000" N
81°14'33.000" W
9.10 m
2402354
71293
YUX

Download Data

Hourly Data (June 2021)
Hourly Data Report for June 22, 2021
TIME
LST
Temp Definition
°C
Dew Point Definition
°C
Rel Hum Definition
%
Precip. Amount Definition
mm

Wind Dir Definition
10's deg

Wind Spd Definition
km/h
Visibility Definition
km
Stn Press Definition
kPa
Hmdx Definition


Wind Chill Definition


Weather Definition


00:00 1.1 1.0 99 1.0 12 35 8.1 99.24     Rain, Fog
01:00 1.0 1.0 100 2.0 12 30 8.1 99.19     Rain, Fog
02:00 1.0 0.9 99 1.0 12 34 14.5 99.13     Rain
03:00 0.8 0.7 99 0.2 12 34 11.3 99.07     Rain
04:00 0.6 0.6 100 0.5 12 34 8.1 99.02     Snow
05:00 0.7 0.7 100 0.0 12 35 6.4 98.95     Fog
06:00 0.7 0.7 100 0.2 13 30 4.8 98.92     Fog
07:00 0.7 0.7 100 0.0 13 30 14.5 98.88     Rain
08:00 0.8 0.8 100 0.0 14 28 9.7 98.91     Rain, Fog
09:00 0.8 0.8 100 0.0 15 28 16.1 98.94     LegendNANA
10:00 0.9 0.8 99 0.0 15 32 16.1 98.98     LegendNANA
11:00 1.0 0.6 97 0.0 16 26 16.1 99.01     LegendNANA
12:00 1.4 0.5 94 0.0 17 26 16.1 99.05     LegendNANA
13:00 0.9 0.5 97 0.0 17 24 16.1 99.08     LegendNANA
14:00 0.8 0.5 98 0.0 15 28 16.1 99.08     LegendNANA
15:00 0.6 0.5 99 0.0 14 24 16.1 99.10     LegendNANA
16:00 0.7 0.7 100 0.0 15 18 1.2 99.09     Fog
17:00 0.5 0.5 100 0.0 13 17 0.6 99.05     Fog
18:00 0.3 0.3 100 0.0 12 15 0.4 99.00     Fog
19:00 0.3 0.3 100 0.0 12 11 6.4 98.97     Snow
20:00 0.3 0.3 100 0.0 9 9 16.1 98.92     Rain
21:00 0.1 0.1 100 0.2 9 13 3.6 98.85     Snow
22:00 0.0 0.0 100 0.2 9 8 2.4 98.82   -3 Snow
23:00 0.0 0.0 100 0.2 6 8 4.0 98.72   -3 Snow

Notes on Data Quality.

Legend

  • E = Estimated
  • M = Missing
  • NA = Not Available*
  • [empty] = Indicates an unobserved value
Date modified: